Temp
76 78 77 77 74 73 71 69 69 69 68 68 69 68 67 66 65 65 64 64 63 63
76 78 74 72 73 72 69 69 68 67 67 67 67 67 65 64 64 65 64 63 62 61
74 73 72 72 71 69 67 67 66 66 65 66 65 65 65 65 65 64 63 63 62 61
70 72 72 70 68 67 66 66 66 66 66 66 65 66 65 65 64 63 62 62 62 60
71 71 69 68 67 67 66 67 67 67 67 67 66 65 65 64 64 62 61 61 60 59
69 68 67 67 66 67 67 67 68 68 67 67 67 66 65 65 65 63 62 61 61 59
67 67 67 67 67 67 68 67 67 66 65 63 61 60 64 65 63 62 63 63 62 60
66 67 67 66 67 67 66 66 66 63 62 59 57 53 52 58 62 62 62 61 62 59
66 66 65 65 65 65 65 64 63 60 58 56 55 46 47 51 58 62 61 58 58 59
66 66 65 65 64 63 62 61 59 57 54 49 48 44 45 48 57 62 60 58 56 57
67 65 65 63 62 61 62 60 59 57 53 50 49 44 44 46 58 60 60 55 53 51
67 64 63 62 60 61 60 59 57 58 55 50 47 45 45 49 59 57 56 52 51 51
66 64 62 61 60 61 60 59 59 55 54 51 49 44 45 48 55 53 57 56 54 49
64 62 62 61 61 60 58 58 56 55 53 51 50 47 43 44 52 51 55 56 53 54
MSLP
1006.31 1007.38 1007.48 1008.69 1009.77 1010.56 1011.95 1012.59 1013.02 1013.34 1013.89 1014.14 1014.28 1014.76 1014.97 1015.29 1015.88 1015.84 1015.79 1015.75 1015.99 1015.72
1006.43 1007.04 1008.08 1009.62 1009.98 1010.97 1012.09 1012.71 1013.31 1013.79 1014.19 1014.39 1014.78 1015.06 1015.52 1015.84 1016.00 1016.06 1016.11 1016.01 1016.29 1016.23
1007.24 1008.23 1008.92 1009.64 1010.49 1011.24 1011.90 1012.90 1013.63 1013.98 1014.38 1014.91 1015.28 1015.58 1015.87 1016.17 1016.24 1016.23 1016.28 1016.37 1016.39 1016.46
1006.91 1008.05 1009.74 1010.74 1011.10 1011.65 1012.05 1013.08 1013.67 1014.50 1014.60 1015.31 1015.79 1016.03 1016.34 1016.30 1016.45 1016.55 1016.68 1016.77 1016.74 1016.86
1006.82 1007.25 1011.06 1011.68 1011.46 1011.93 1012.39 1013.31 1014.02 1014.72 1015.04 1015.79 1016.12 1016.45 1016.54 1016.63 1016.86 1017.05 1017.10 1017.08 1017.25 1017.34
1005.98 1009.93 1011.75 1011.52 1011.89 1012.21 1012.72 1013.60 1014.56 1014.98 1015.54 1015.94 1016.47 1016.74 1016.89 1016.99 1017.06 1017.21 1017.42 1017.51 1017.49 1017.66
1009.60 1010.94 1011.85 1011.68 1011.86 1012.62 1013.33 1014.25 1014.96 1015.65 1016.23 1017.01 1017.51 1017.72 1017.53 1017.49 1017.54 1017.73 1017.72 1017.63 1017.65 1017.85
1010.98 1011.41 1011.19 1011.42 1012.59 1013.29 1013.95 1014.93 1015.77 1016.57 1017.47 1018.12 1018.58 1019.05 1018.97 1018.28 1017.91 1017.98 1018.03 1018.20 1018.28 1018.62
1010.89 1010.55 1011.11 1012.38 1013.17 1013.86 1014.81 1015.65 1016.52 1017.53 1018.29 1019.00 1019.62 1019.74 1019.39 1019.16 1018.72 1018.44 1018.51 1018.76 1019.06 1018.96
1010.11 1010.60 1012.03 1012.94 1013.79 1014.80 1015.83 1016.79 1017.59 1018.41 1019.40 1020.19 1020.41 1020.16 1019.80 1019.48 1019.13 1018.72 1018.86 1019.12 1019.51 1019.52
1010.24 1011.38 1012.64 1013.80 1014.81 1015.78 1016.63 1017.44 1018.25 1019.17 1020.02 1020.66 1021.08 1020.82 1020.39 1019.64 1019.25 1019.16 1019.28 1019.89 1020.25 1020.36
1010.95 1012.42 1013.68 1014.63 1015.70 1016.63 1017.42 1018.27 1019.08 1019.74 1020.58 1021.33 1021.87 1021.58 1020.86 1020.10 1019.93 1020.04 1020.23 1020.55 1020.64 1020.74
1012.32 1013.43 1014.38 1015.34 1016.35 1017.38 1018.23 1019.16 1020.01 1020.71 1021.18 1021.75 1022.10 1022.14 1021.65 1021.37 1021.34 1021.00 1020.50 1020.45 1020.92 1021.03
1013.41 1014.32 1015.25 1016.24 1017.19 1018.17 1019.03 1019.76 1020.34 1020.87 1021.57 1021.93 1022.18 1022.64 1022.68 1022.56 1022.22 1021.96 1021.27 1021.26 1021.45 1021.27
Wind_Speed
19 10 11 11 11 10 7 8 10 10 9 8 7 7 7 6 4 4 4 6 5 5
14 11 12 17 13 11 12 10 11 10 9 9 8 6 7 4 4 4 4 7 6 4
16 16 14 14 13 14 14 13 10 11 10 10 8 7 7 5 4 5 5 4 6 5
17 17 14 13 14 14 14 12 11 9 10 9 6 5 3 5 7 7 6 6 6 8
20 20 14 13 15 14 14 12 11 9 10 9 8 6 6 7 6 7 6 6 8 8
24 18 14 15 15 14 14 12 11 10 9 9 7 7 6 6 7 7 8 7 5 6
18 17 15 15 16 14 13 13 12 12 13 12 11 11 10 6 7 6 5 6 6 8
18 17 16 18 15 14 14 13 13 13 12 11 10 9 10 9 6 6 6 9 10 8
17 18 18 16 15 15 14 13 14 14 13 11 9 14 14 10 6 7 7 7 9 7
18 19 18 16 16 15 14 13 14 13 12 11 10 17 16 13 5 5 5 7 7 9
19 19 17 17 16 14 12 12 12 12 12 11 11 16 15 16 2 8 8 11 10 8
19 18 17 16 15 13 11 12 11 11 12 12 11 16 19 13 9 9 7 8 9 9
18 17 17 16 14 13 12 11 10 11 10 12 10 14 18 14 8 8 7 7 9 12
18 17 16 14 12 12 11 10 10 11 9 12 11 11 12 13 9 7 7 7 7 7
Wind_Direction
154 164 144 151 136 122 113 106 98 90 87 80 78 69 42 57 45 55 4 55 18 353
150 140 104 115 119 122 116 106 95 99 94 78 69 47 86 72 42 50 18 52 29 348
116 113 114 115 119 111 101 105 105 91 83 72 66 50 40 64 67 57 40 28 39 26
120 116 98 109 110 107 105 104 101 98 92 89 80 81 88 86 48 50 46 32 35 32
114 105 116 119 110 109 108 104 104 102 94 92 81 64 69 62 62 54 46 31 42 31
97 113 127 116 114 109 105 101 100 94 92 88 94 93 72 61 53 60 44 30 23 47
112 121 126 119 104 105 103 100 89 77 65 54 42 29 25 55 61 47 36 22 12 61
126 130 118 104 105 101 97 97 93 85 76 69 59 33 11 358 31 52 35 38 16 77
123 110 103 103 101 97 93 90 87 78 68 58 51 9 16 8 320 53 40 47 25 6
114 106 104 102 97 93 91 91 89 87 79 61 33 11 3 352 326 57 43 68 35 18
107 102 99 98 97 97 96 91 86 85 76 58 34 15 3 340 270 44 39 55 48 33
101 104 106 102 99 98 93 82 72 67 84 67 41 20 15 3 33 26 67 80 61 39
104 104 102 100 99 101 99 96 92 79 67 90 58 32 25 21 23 13 1 48 30 36
96 96 98 101 94 90 95 99 98 107 105 73 53 42 28 16 32 11 6 21 19 0